Sable Island, Nova Scotia

10:08 AM ADT on July 21, 2017 (GMT -0300)
Sable Island

Weather History for CWSA - October, 2013

Change the Weather History Date:

Sunday, October 27, 2013

  Actual Average Record
Temperature  
Mean Temperature 54 °F -  
Max Temperature 61 °F 50 °F 62 °F (2003)
Min Temperature 48 °F 41 °F 41 °F (1998)
Degree Days  
Heating Degree Days 10    
Growing Degree Days 4 (Base 50)    
Moisture  
Dew Point 52 °F    
Average Humidity 85    
Maximum Humidity 100    
Minimum Humidity 50    
Precipitation  
Precipitation 0.79 in 0.19 in - ()
Sea Level Pressure  
Sea Level Pressure 29.83 in    
Wind  
Wind Speed 19 mph ()    
Max Wind Speed 31 mph    
Max Gust Speed 40 mph    
Visibility 4.8 miles    
Events Rain    
Averages and records for this station are not official NWS values.
T = Trace of Precipitation, MM = Missing Value Source: Averaged Metar Reports

Daily Weather History Graph

Daily Weather History Graph

Search for Another Location

Airport or City:

Trip Planner

Search our weather history database for the weather conditions in past years. The results will help you decide how hot, cold, wet, or windy it might be!

Date:

Astronomy

Oct. 27, 2013 Rise Set
Actual Time 7:30 AM ADT 5:57 PM ADT
Civil Twilight 7:00 AM ADT 6:26 PM ADT
Nautical Twilight 6:26 AM ADT 7:00 PM ADT
Astronomical Twilight 5:53 AM ADT 7:33 PM ADT
Moon 12:09 AM ADT (10/27) 2:16 PM ADT (10/27)
Length of Visible Light 11h 26m
Length of Day
10h 27m
Last Quarter, 44% of the Moon is Illuminated
Oct 27
Last Quarter
Nov 3
New
Nov 10
First Quarter
Nov 17
Full
Nov 25
Last Quarter

Hourly Weather History & Observations

Time (ADT) Temp. Dew Point Humidity Pressure Visibility Wind Dir Wind Speed Gust Speed Precip Events Conditions
12:00 AM 51 °F 39 °F 54% 30.14 in 9 mi WSW 17.3 mph - -  
12:00 AM 50.0 °F 39.2 °F 66% 30.14 in 9.0 mi WSW 16.1 mph 25.3 mph N/A   Partly Cloudy
1:00 AM 51.8 °F 37.4 °F 58% 30.14 in 9.0 mi SW 18.4 mph - N/A   Clear
2:00 AM 51.8 °F 39.2 °F 62% 30.14 in 9.0 mi SW 20.7 mph - N/A   Clear
3:00 AM 53 °F 40 °F 50% 30.13 in 9 mi SW 19.6 mph - -  
3:00 AM 51.8 °F 39.2 °F 62% 30.13 in 9.0 mi SSW 20.7 mph - N/A   Partly Cloudy
4:00 AM 53.6 °F 41.0 °F 62% 30.12 in 9.0 mi SSW 21.9 mph - N/A   Partly Cloudy
5:00 AM 53.6 °F 44.6 °F 72% 30.09 in 9.0 mi South 16.1 mph - N/A   Scattered Clouds
6:00 AM 55 °F 45 °F 61% 30.07 in 9 mi South 17.3 mph - -  
6:00 AM 55.4 °F 44.6 °F 67% 30.07 in 9.0 mi South 17.3 mph - N/A   Mostly Cloudy
7:00 AM 55.4 °F 46.4 °F 72% 30.06 in 9.0 mi South 20.7 mph 27.6 mph N/A   Mostly Cloudy
8:00 AM 57.2 °F 50.0 °F 77% 30.05 in 9.0 mi South 20.7 mph 28.8 mph N/A   Partly Cloudy
9:00 AM 58 °F 49 °F 65% 30.04 in 9 mi South 19.6 mph - -  
9:00 AM 57.2 °F 50.0 °F 77% 30.04 in 9.0 mi South 19.6 mph - N/A   Partly Cloudy
10:00 AM 59.0 °F 51.8 °F 77% 30.01 in 8.0 mi SSE 17.3 mph 23.0 mph N/A   Clear
11:00 AM 59.0 °F 51.8 °F 77% 29.97 in 8.0 mi South 20.7 mph - N/A   Partly Cloudy
12:00 PM 59 °F 52 °F 71% 29.93 in 7 mi South 20.7 mph - -  
12:00 PM 59.0 °F 51.8 °F 77% 29.93 in 8.0 mi South 21.9 mph 27.6 mph N/A   Partly Cloudy
1:00 PM 60.8 °F 53.6 °F 77% 29.87 in 7.0 mi South 20.7 mph - N/A   Partly Cloudy
1:40 PM 59.0 °F 53.6 °F 82% 29.82 in 6.0 mi South 21.9 mph 27.6 mph N/A Rain Light Rain
2:00 PM 60.8 °F 55.4 °F 82% 29.81 in 6.0 mi SSE 21.9 mph - N/A Rain Light Rain
2:05 PM 60.8 °F 55.4 °F 82% 29.79 in 6.0 mi SSE 21.9 mph 27.6 mph N/A   Partly Cloudy
2:55 PM 60.8 °F 53.6 °F 77% 29.74 in 6.0 mi South 25.3 mph 31.1 mph N/A Rain Light Rain
3:00 PM 60.8 °F 53.6 °F 77% 29.74 in 6.0 mi South 25.3 mph 33.4 mph N/A Rain Light Rain
3:18 PM 60.8 °F 55.4 °F 82% 29.73 in 2.5 mi South 27.6 mph - N/A Rain Rain
3:34 PM 60.8 °F 55.4 °F 82% 29.73 in 5.0 mi South 28.8 mph 36.8 mph N/A Rain Light Rain
4:00 PM 60.8 °F 55.4 °F 82% 29.72 in 3.0 mi South 26.5 mph 32.2 mph N/A Rain Light Rain
4:03 PM 59.0 °F 55.4 °F 88% 29.72 in 2.4 mi South 27.6 mph - N/A Rain Rain
4:30 PM 59.0 °F 57.2 °F 94% 29.72 in 1.1 mi SSW 29.9 mph 36.8 mph N/A Rain Heavy Rain
4:32 PM 59.0 °F 57.2 °F 94% 29.72 in 1.0 mi SSW 29.9 mph 38.0 mph N/A Rain Heavy Rain
4:33 PM 59.0 °F 57.2 °F 94% 29.72 in 0.6 mi SSW 31.1 mph 38.0 mph N/A Rain Heavy Rain
4:34 PM 57.2 °F 57.2 °F 100% 29.72 in 0.6 mi SSW 29.9 mph 38.0 mph N/A Rain Heavy Rain
4:37 PM 57.2 °F 57.2 °F 100% 29.72 in 0.5 mi SSW 26.5 mph 38.0 mph N/A Rain Heavy Rain
4:39 PM 57.2 °F 57.2 °F 100% 29.72 in 0.4 mi SSW 27.6 mph 38.0 mph N/A Rain Heavy Rain
4:57 PM 57.2 °F 57.2 °F 100% 29.71 in 0.8 mi SSW 23.0 mph 31.1 mph N/A Rain Heavy Rain
5:00 PM 57.2 °F 57.2 °F 100% 29.71 in 0.8 mi SSW 20.7 mph 31.1 mph N/A Rain Heavy Rain
5:02 PM 57.2 °F 57.2 °F 100% 29.70 in 1.0 mi SSW 19.6 mph 29.9 mph N/A Rain Rain
5:04 PM 57.2 °F 57.2 °F 100% 29.70 in 1.0 mi SSW 20.7 mph 28.8 mph N/A Rain Rain
5:09 PM 57.2 °F 57.2 °F 100% 29.70 in 1.0 mi SSW 21.9 mph - N/A Rain Rain
5:13 PM 57.2 °F 57.2 °F 100% 29.70 in 1.0 mi SSW 23.0 mph 28.8 mph N/A Rain Rain
5:17 PM 57.2 °F 57.2 °F 100% 29.69 in 1.5 mi SSW 21.9 mph 28.8 mph N/A Rain Light Rain
5:22 PM 57.2 °F 57.2 °F 100% 29.71 in 1.4 mi WSW 17.3 mph 28.8 mph N/A Rain Rain
5:26 PM 57.2 °F 57.2 °F 100% 29.71 in 1.0 mi SW 18.4 mph 24.2 mph N/A Rain Rain
5:30 PM 57.2 °F 57.2 °F 100% 29.71 in 1.0 mi SW 20.7 mph - N/A Rain Rain
5:31 PM 57.2 °F 57.2 °F 100% 29.71 in 1.0 mi SW 20.7 mph - N/A Rain Rain
5:34 PM 57.2 °F 57.2 °F 100% 29.71 in 1.0 mi WSW 21.9 mph - N/A Rain Rain
5:36 PM 57.2 °F 57.2 °F 100% 29.71 in 1.5 mi WSW 21.9 mph - N/A Rain Rain
5:41 PM 57.2 °F 57.2 °F 100% 29.71 in 1.8 mi SW 19.6 mph 25.3 mph N/A Rain Light Rain
5:42 PM 57.2 °F 57.2 °F 100% 29.72 in 1.8 mi SW 20.7 mph - N/A   Mostly Cloudy
5:50 PM 57.2 °F 57.2 °F 100% 29.72 in 2.0 mi WSW 21.9 mph - N/A   Mostly Cloudy
5:58 PM 57.2 °F 55.4 °F 94% 29.72 in 2.5 mi WSW 23.0 mph - N/A   Mostly Cloudy
6:00 PM 56 °F 54 °F 92% 29.74 in 3 mi WSW 23.0 mph - -  
6:00 PM 55.4 °F 53.6 °F 94% 29.74 in 3.0 mi West 27.6 mph 40.3 mph N/A   Mostly Cloudy
6:01 PM 55.4 °F 53.6 °F 94% 29.74 in 3.0 mi West 24.2 mph 40.3 mph N/A   Mostly Cloudy
6:02 PM 53.6 °F 53.6 °F 100% 29.74 in 3.5 mi WNW 19.6 mph 40.3 mph N/A   Mostly Cloudy
6:17 PM 53.6 °F 51.8 °F 94% 29.73 in 9.0 mi WNW 11.5 mph - N/A   Overcast
6:27 PM 53.6 °F 51.8 °F 94% 29.74 in 9.0 mi WNW 10.4 mph - N/A   Mostly Cloudy
6:40 PM 53.6 °F 51.8 °F 94% 29.74 in 9.0 mi West 8.1 mph - N/A   Partly Cloudy
7:00 PM 53.6 °F 51.8 °F 94% 29.75 in 4.0 mi West 8.1 mph - N/A   Partly Cloudy
8:00 PM 55.4 °F 51.8 °F 88% 29.78 in 3.5 mi WSW 11.5 mph - N/A   Scattered Clouds
9:00 PM 54 °F 49 °F 78% 29.79 in 6 mi West 17.3 mph - -  
9:00 PM 53.6 °F 50.0 °F 88% 29.79 in 6.0 mi West 19.6 mph - N/A   Partly Cloudy
10:00 PM 51.8 °F 44.6 °F 76% 29.80 in 9.0 mi WNW 12.7 mph 19.6 mph N/A   Clear
11:00 PM 51.8 °F 44.6 °F 76% 29.81 in 9.0 mi WNW 15.0 mph - N/A   Partly Cloudy